This demonstration page uses our WeatherBlox Daily Observations layout. Learn more.

Left ArrowRight Arrow

Hourly Observations for June 11, 2016

Temp ( °F °C ) Dew Point ( °F °C ) Humidity (%) Winds ( mph kmh ) Pressure ( in mb ) Visibility ( mi km ) Precip ( " mm )
12:51 am 00:51 Clear 68 20 63 17.2 84 84 Calm 29.85 1011 10 16 0.00 0.00
1:51 am 01:51 Clear 68 20 62 16.7 81 81 N 5 7 29.83 1010 10 16 0.00 0.00
2:51 am 02:51 Clear 67 19.4 64 17.8 91 91 E 3 6 29.84 1010 10 16 0.00 0.00
3:51 am 03:51 Clear 67 19.4 63 17.2 87 87 ENE 3 6 29.85 1011 10 16 0.00 0.00
4:51 am 04:51 Clear 66 18.9 64 17.8 93 93 WSW 3 6 29.86 1011 10 16 0.00 0.00
5:51 am 05:51 Sunny 67 19.4 65 18.3 93 93 NW 3 6 29.92 1013 10 16 0.00 0.00
6:51 am 06:51 Sunny 70 21.1 63 17.2 79 79 Calm 29.91 1013 10 16 0.00 0.00
7:51 am 07:51 Sunny 73 22.8 62 16.7 69 69 WNW 3 6 29.92 1013 10 16 0.00 0.00
8:51 am 08:51 Sunny 76 24.4 63 17.2 64 64 WNW 3 6 29.91 1013 10 16 0.00 0.00
9:51 am 09:51 Sunny 80 26.7 59 15 49 49 W 3 6 29.91 1013 10 16 0.00 0.00
10:51 am 10:51 Sunny 83 28.3 57 13.9 41 41 VRB 5 7 29.90 1013 10 16 0.00 0.00
11:51 am 11:51 Sunny 87 30.6 57 13.9 36 36 WSW 6 9 29.87 1012 10 16 0.00 0.00
12:51 pm 12:51 Sunny 90 32.2 53 11.7 28 28 VRB 3 6 29.83 1010 10 16 0.00 0.00
1:51 pm 13:51 Sunny 93 33.9 54 12.2 27 27 NW 8 13 29.80 1009 10 16 0.00 0.00
2:51 pm 14:51 Mostly Sunny 94 34.4 52 11.1 24 24 undefined N/A 29.78 1008 10 16 0.00 0.00
3:51 pm 15:51 Sunny 94 34.4 52 11.1 24 24 WSW 8 13 29.77 1008 10 16 0.00 0.00
4:51 pm 16:51 Sunny 96 35.6 50 10 21 21 NW 15 24 29.75 1008 10 16 0.00 0.00
5:51 pm 17:51 Mostly Cloudy 92 33.3 52 11.1 26 26 WNW 29 46 29.77 1008 10 16 0.00 0.00
6:51 pm 18:51 Sunny 87 30.6 54 12.2 32 32 NNW 16 26 29.79 1009 10 16 0.00 0.00
7:51 pm 19:51 Mostly Cloudy 86 30 53 11.7 32 32 NNW 8 13 29.80 1009 10 16 0.00 0.00
8:51 pm 20:51 Clear 85 29.4 55 12.8 36 36 WNW 7 11 29.82 1010 10 16 0.00 0.00
9:51 pm 21:51 Mostly Clear 83 28.3 56 13.3 40 40 NW 5 7 29.83 1010 10 16 0.00 0.00
10:51 pm 22:51 Clear 82 27.8 55 12.8 40 40 WSW 3 6 29.83 1010 10 16 0.00 0.00
11:51 pm 23:51 Mostly Clear 78 25.6 56 13.3 47 47 SE 7 11 29.84 1011 10 16 0.00 0.00

Powered by AerisWeather